TimeCDT,TemperatureF,Dew PointF,Humidity,Sea Level PressureIn,VisibilityMPH,Wind Direction,Wind SpeedMPH,Gust SpeedMPH,PrecipitationIn,Events,Conditions,WindDirDegrees,DateUTC
12:56 AM,73.0,64.9,76,29.88,10.0,NNE,4.6,-,N/A,,Clear,20,2013-09-14 05:56:00
1:56 AM,71.1,63.0,75,29.88,10.0,North,4.6,-,N/A,,Clear,360,2013-09-14 06:56:00
2:56 AM,69.1,60.1,73,29.88,10.0,North,4.6,-,N/A,,Clear,360,2013-09-14 07:56:00
3:56 AM,68.0,59.0,73,29.89,10.0,NNE,4.6,-,N/A,,Scattered Clouds,20,2013-09-14 08:56:00
4:56 AM,66.0,59.0,78,29.90,10.0,NNE,3.5,-,N/A,,Clear,20,2013-09-14 09:56:00
5:00 AM,-9999,-9999,N/A,-9999,-9999.0,North,-9999.0,-,N/A,Hail,Hail,0,2013-09-14 10:00:00
5:56 AM,64.9,57.9,78,29.91,10.0,North,4.6,-,N/A,,Clear,10,2013-09-14 10:56:00
6:56 AM,64.0,57.9,80,29.94,10.0,North,4.6,-,N/A,,Clear,10,2013-09-14 11:56:00
7:56 AM,66.9,57.0,70,29.95,10.0,NE,5.8,-,N/A,,Clear,40,2013-09-14 12:56:00
8:56 AM,72.0,57.0,59,29.96,10.0,NNE,8.1,-,N/A,,Clear,30,2013-09-14 13:56:00
9:56 AM,77.0,55.9,48,29.98,10.0,Variable,5.8,-,N/A,,Clear,0,2013-09-14 14:56:00
10:56 AM,82.0,55.0,39,29.97,10.0,Variable,4.6,-,N/A,,Clear,0,2013-09-14 15:56:00
11:56 AM,84.0,52.0,33,29.96,10.0,NNE,5.8,-,N/A,,Clear,30,2013-09-14 16:56:00
12:56 PM,84.0,53.1,34,29.96,10.0,Variable,3.5,-,N/A,,Clear,0,2013-09-14 17:56:00
1:56 PM,86.0,54.0,33,29.95,10.0,North,4.6,-,N/A,,Clear,350,2013-09-14 18:56:00
2:56 PM,88.0,55.0,32,29.94,10.0,West,5.8,-,N/A,,Clear,270,2013-09-14 19:56:00
3:56 PM,87.1,53.1,31,29.93,10.0,NNW,9.2,-,N/A,,Clear,340,2013-09-14 20:56:00
4:56 PM,86.0,53.1,32,29.94,10.0,North,8.1,-,N/A,,Clear,360,2013-09-14 21:56:00
5:56 PM,82.9,52.0,34,29.95,10.0,North,4.6,-,N/A,,Clear,360,2013-09-14 22:56:00
6:56 PM,77.0,57.0,50,29.96,10.0,North,3.5,-,N/A,,Clear,360,2013-09-14 23:56:00
7:56 PM,71.1,59.0,66,29.97,10.0,North,4.6,-,N/A,,Clear,360,2013-09-15 00:56:00
8:56 PM,69.1,59.0,70,29.99,10.0,Calm,Calm,-,N/A,,Clear,0,2013-09-15 01:56:00
9:56 PM,64.9,60.1,84,30.01,10.0,Calm,Calm,-,N/A,,Clear,0,2013-09-15 02:56:00
10:56 PM,63.0,59.0,87,30.02,10.0,Calm,Calm,-,N/A,,Clear,0,2013-09-15 03:56:00
11:56 PM,63.0,59.0,87,30.01,10.0,Calm,Calm,-,N/A,,Clear,0,2013-09-15 04:56:00